Location: Eschertshofen
(49.3064°N, 11.5756°E)
Time: 22:38:28
(UTC+00:00)

SJ 16-02 - Pass Details

Date: 18 September 2020
Orbit: 606 x 616 km, 75.0° (Epoch: 31 October)

Event Time Altitude Azimuth Distance (km) Brightness Sun altitude
Rises 17:58:11 0° 210° (SSW) 2,854 5.0 -7.1°
Reaches altitude 10° 18:00:26 10° 213° (SSW) 1,954 4.2 -7.4°
Maximum altitude 18:04:45 61° 295° (WNW) 692 2.0 -8.1°
Drops below altitude 10° 18:09:06 10° 16° (NNE) 1,967 3.9 -8.8°
Sets 18:11:23 0° 20° (NNE) 2,876 4.7 -9.2°
